Tracking 19706 objects as of 16-Jun-2019
HD Live streaming from Space Station
objects crossing your sky now

HISPASAT 1A

Track HISPASAT 1A now!
HISPASAT 1A is classified as:


NORAD ID: 22116
Int'l Code: 1992-060A
Perigee: 36,039.7 km
Apogee: 36,085.1 km
Inclination: 12.4 °
Period: 1,449.8 minutes
Semi major axis: 42433 km
RCS: 7.143 m2 (large)
Launch date: September 10, 1992
Source: Spain (SPN)
Launch site: FRENCH GUIANA (FRGUI)
aabbcc
Your satellite tracking list
Your tracking list is empty




NASA's NSSDC Master Catalog

Two Line Element Set (TLE):
1 22116U 92060A   19166.42896698 -.00000303 +00000-0 +00000-0 0  9991
2 22116 012.3831 028.8620 0005350 295.5964 249.7503 00.99320916094081
Source of the keplerian elements: AFSPC